DW0275 Weather Reports


Display with metric or nautical units.
time (UTC)temp
F
wind
direction
speed
MPH
gust
MPH
rain 1hr
in
rain 24hr
in
rain mn
in
humidity
%
barometer
mb
20260503021822 80 266 0.0 1.0 0.00 0.00 0.00 77 1014.1
20260503021325 80 266 0.0 1.0 0.00 0.00 0.00 77 1014.1
20260503020827 80 266 0.0 3.0 0.00 0.00 0.00 77 1014.1
20260503020321 80 267 1.0 3.0 0.00 0.00 0.00 77 1014.1
20260503015832 81 286 1.0 3.0 0.00 0.00 0.00 76 1014.0
20260503015344 81 205 0.0 3.0 0.00 0.00 0.00 76 1014.0
20260503014846 81 96 0.0 4.0 0.00 0.00 0.00 75 1013.9
20260503014330 82 7 1.0 9.0 0.00 0.00 0.00 75 1013.9
20260503013843 82 14 1.0 8.0 0.00 0.00 0.00 74 1013.9
20260503013332 82 167 2.0 8.0 0.00 0.00 0.00 73 1013.9
20260503012826 82 1 2.0 7.0 0.00 0.00 0.00 73 1013.8
20260503012348 82 293 1.0 3.0 0.00 0.00 0.00 73 1013.7
20260503011830 82 141 0.0 2.0 0.00 0.00 0.00 72 1013.4
20260503011322 83 323 0.0 2.0 0.00 0.00 0.00 72 1013.4
20260503010832 83 50 0.0 2.0 0.00 0.00 0.00 71 1013.3
20260503010324 83 313 0.0 2.0 0.00 0.00 0.00 71 1013.3
20260503005845 83 297 0.0 2.0 0.00 0.00 0.00 71 1013.2
20260503005344 83 342 0.0 3.0 0.00 0.00 0.00 70 1013.2
20260503004838 83 277 0.0 3.0 0.00 0.00 0.00 70 1013.1
20260503004328 84 17 0.0 2.0 0.00 0.00 0.00 69 1013.0
20260503003822 84 31 0.0 2.0 0.00 0.00 0.00 68 1012.9
20260503003345 84 207 0.0 2.0 0.00 0.00 0.00 68 1012.9
20260503002819 85 294 0.0 2.0 0.00 0.00 0.00 67 1012.8
20260503002342 85 338 0.0 3.0 0.00 0.00 0.00 67 1012.8
20260503001854 85 293 1.0 3.0 0.00 0.00 0.00 66 1012.7
20260503001329 85 288 0.0 1.0 0.00 0.00 0.00 66 1012.6
20260503000844 85 310 0.0 1.0 0.00 0.00 0.00 66 1012.6
20260503000356 85 30 0.0 1.0 0.00 0.00 0.00 66 1012.5
20260502235830 86 30 0.0 1.0 0.00 0.00 0.00 65 1012.4
20260502235325 86 56 0.0 1.0 0.00 0.00 0.00 65 1012.2
20260502234834 86 25 0.0 1.0 0.00 0.00 0.00 64 1012.2
20260502234346 87 25 0.0 1.0 0.00 0.00 0.00 63 1012.1
20260502233830 87 287 0.0 0.0 0.00 0.00 0.00 63 1012.1
20260502233324 87 302 0.0 0.0 0.00 0.00 0.00 62 1011.9
20260502232820 87 21 0.0 0.0 0.00 0.00 0.00 61 1012.0
20260502232330 88 286 0.0 2.0 0.00 0.00 0.00 61 1011.8
20260502231823 88 293 0.0 2.0 0.00 0.00 0.00 60 1011.8
20260502231326 88 1 0.0 3.0 0.00 0.00 0.00 60 1011.7
20260502230827 89 329 0.0 3.0 0.00 0.00 0.00 60 1011.6
20260502230319 89 17 0.0 2.0 0.00 0.00 0.00 59 1011.4
20260502225831 89 276 0.0 2.0 0.00 0.00 0.00 58 1011.4
20260502225344 89 294 0.0 1.0 0.00 0.00 0.00 58 1011.3
20260502224843 89 290 0.0 3.0 0.00 0.00 0.00 58 1011.4
20260502224346 90 319 1.0 3.0 0.00 0.00 0.00 57 1011.3
20260502223819 90 262 0.0 2.0 0.00 0.00 0.00 57 1011.3
20260502223328 90 339 0.0 2.0 0.00 0.00 0.00 56 1011.2
20260502222822 90 63 0.0 3.0 0.00 0.00 0.00 57 1011.2
20260502222323 91 289 0.0 2.0 0.00 0.00 0.00 56 1011.1
20260502221831 91 51 0.0 3.0 0.00 0.00 0.00 55 1011.1
20260502221344 91 282 1.0 3.0 0.00 0.00 0.00 55 1011.0
20260502220821 91 127 1.0 7.0 0.00 0.00 0.00 54 1011.1
20260502220335 92 30 0.0 4.0 0.00 0.00 0.00 53 1011.0
20260502215844 92 307 0.0 4.0 0.00 0.00 0.00 54 1010.9
20260502215345 92 1 2.0 6.0 0.00 0.00 0.00 52 1011.0
20260502214823 92 307 1.0 6.0 0.00 0.00 0.00 52 1011.0
20260502214329 93 345 1.0 5.0 0.00 0.00 0.00 53 1011.0
20260502213845 92 157 1.0 5.0 0.00 0.00 0.00 52 1011.0
20260502213319 93 20 0.0 4.0 0.00 0.00 0.00 51 1011.0
20260502212842 93 278 2.0 4.0 0.00 0.00 0.00 51 1010.9
20260502212328 93 104 0.0 4.0 0.00 0.00 0.00 52 1011.0
20260502211828 93 117 1.0 4.0 0.00 0.00 0.00 51 1011.0
20260502211322 93 285 2.0 5.0 0.00 0.00 0.00 52 1010.9
20260502210824 93 240 1.0 7.0 0.00 0.00 0.00 52 1010.9
20260502210326 93 274 2.0 7.0 0.00 0.00 0.00 52 1010.8
20260502205820 93 286 2.0 4.0 0.00 0.00 0.00 51 1010.8
20260502205333 93 10 1.0 7.0 0.00 0.00 0.00 50 1010.8
20260502204822 93 356 3.0 7.0 0.00 0.00 0.00 51 1010.9
20260502204323 94 307 1.0 5.0 0.00 0.00 0.00 54 1010.8
20260502203846 93 110 1.0 6.0 0.00 0.00 0.00 53 1010.8
20260502203337 93 11 2.0 7.0 0.00 0.00 0.00 51 1010.9
20260502202829 94 76 2.0 7.0 0.00 0.00 0.00 51 1010.9
20260502202336 94 337 1.0 8.0 0.00 0.00 0.00 52 1011.0
20260502201845 94 281 2.0 8.0 0.00 0.00 0.00 52 1010.9
20260502201331 94 146 2.0 8.0 0.00 0.00 0.00 54 1011.0
20260502200843 94 302 3.0 8.0 0.00 0.00 0.00 52 1010.9
20260502200331 94 311 2.0 9.0 0.00 0.00 0.00 54 1011.0
20260502195826 94 346 2.0 9.0 0.00 0.00 0.00 53 1011.0
20260502195346 95 122 3.0 9.0 0.00 0.00 0.00 53 1011.1
20260502194820 94 29 1.0 8.0 0.00 0.00 0.00 55 1011.2
20260502194334 94 130 2.0 8.0 0.00 0.00 0.00 55 1011.1
20260502193819 94 297 3.0 6.0 0.00 0.00 0.00 54 1011.3
20260502193330 95 351 1.0 6.0 0.00 0.00 0.00 53 1011.3
20260502192824 95 32 1.0 10.0 0.00 0.00 0.00 56 1011.4
20260502192338 95 56 2.0 10.0 0.00 0.00 0.00 56 1011.3
20260502191842 95 312 2.0 7.0 0.00 0.00 0.00 55 1011.3
20260502191325 95 300 2.0 6.0 0.00 0.00 0.00 53 1011.3
20260502190833 95 252 1.0 7.0 0.00 0.00 0.00 55 1011.3
20260502190326 95 285 2.0 7.0 0.00 0.00 0.00 56 1011.3
20260502185820 95 290 1.0 4.0 0.00 0.00 0.00 56 1011.3
20260502185407 95 344 0.0 6.0 0.00 0.00 0.00 57 1011.3
20260502184834 95 310 2.0 8.0 0.00 0.00 0.00 56 1011.4
20260502184326 94 93 1.0 8.0 0.00 0.00 0.00 57 1011.2
20260502183825 94 19 3.0 11.0 0.00 0.00 0.00 55 1011.4
20260502183326 94 306 3.0 11.0 0.00 0.00 0.00 57 1011.4
20260502182846 93 139 2.0 7.0 0.00 0.00 0.00 59 1011.4
20260502182338 93 23 2.0 6.0 0.00 0.00 0.00 61 1011.6
20260502181835 93 329 3.0 6.0 0.00 0.00 0.00 58 1011.6
20260502181329 93 331 1.0 4.0 0.00 0.00 0.00 61 1011.6
20260502180841 94 299 1.0 7.0 0.00 0.00 0.00 60 1011.7
20260502180332 94 250 2.0 7.0 0.00 0.00 0.00 60 1011.7
20260502170353 94 116 2.0 8.0 0.00 0.00 0.00 64 1012.1
20260502164334 93 250 4.0 12.0 0.00 0.00 0.00 65 1012.1
20260502163819 93 108 4.0 12.0 0.00 0.00 0.00 65 1012.3
20260502163327 93 174 3.0 9.0 0.00 0.00 0.00 66 1012.2
20260502162819 92 18 2.0 9.0 0.00 0.00 0.00 66 1012.3
20260502162331 93 141 2.0 9.0 0.00 0.00 0.00 66 1012.6
20260502161900 93 312 2.0 9.0 0.00 0.00 0.00 65 1012.6
20260502161347 92 167 5.0 9.0 0.00 0.00 0.00 65 1012.5
20260502160829 92 5 2.0 8.0 0.00 0.00 0.00 64 1012.6
20260502160340 92 155 3.0 8.0 0.00 0.00 0.00 66 1012.5
20260502152332 91 114 3.0 10.0 0.00 0.00 0.00 66 1012.8
20260502151822 90 117 3.0 10.0 0.00 0.00 0.00 67 1012.8
20260502151332 90 139 2.0 5.0 0.00 0.00 0.00 68 1013.0
20260502150824 90 154 2.0 6.0 0.00 0.00 0.00 69 1012.9
20260502150331 90 306 2.0 6.0 0.00 0.00 0.00 70 1012.8
20260502130331 83 140 3.0 8.0 0.00 0.00 0.00 80 1012.5
20260502123323 80 165 2.0 4.0 0.00 0.00 0.00 82 1012.6
20260502122909 80 110 1.0 4.0 0.00 0.00 0.00 82 1012.6
20260502122332 80 115 1.0 4.0 0.00 0.00 0.00 82 1012.6
20260502121834 80 146 1.0 3.0 0.00 0.00 0.00 82 1012.6
20260502121323 79 156 1.0 3.0 0.00 0.00 0.00 83 1012.5
20260502120826 79 197 1.0 3.0 0.00 0.00 0.00 83 1012.6
20260502120346 78 127 1.0 3.0 0.00 0.00 0.00 84 1012.6
20260502115827 77 126 1.0 2.0 0.00 0.00 0.00 85 1012.6
20260502115339 77 162 0.0 2.0 0.00 0.00 0.00 85 1012.6
20260502114829 76 172 0.0 0.0 0.00 0.00 0.00 86 1012.7
20260502114323 76 152 0.0 0.0 0.00 0.00 0.00 86 1012.8
20260502113836 75 168 0.0 0.0 0.00 0.00 0.00 86 1012.7
20260502113330 75 168 0.0 0.0 0.00 0.00 0.00 86 1012.8
20260502112824 75 168 0.0 1.0 0.00 0.00 0.00 87 1012.7
20260502112335 75 165 0.0 1.0 0.00 0.00 0.00 87 1012.7
20260502111825 74 134 0.0 1.0 0.00 0.00 0.00 87 1012.8
20260502111347 74 131 0.0 1.0 0.00 0.00 0.00 88 1012.9
20260502110838 74 161 0.0 2.0 0.00 0.00 0.00 88 1012.7
20260502110333 74 148 1.0 2.0 0.00 0.00 0.00 88 1012.7
20260502105827 74 131 0.0 1.0 0.00 0.00 0.00 88 1012.7
20260502105336 74 131 0.0 0.0 0.00 0.00 0.00 88 1012.7
20260502104847 73 131 0.0 0.0 0.00 0.00 0.00 88 1012.7
20260502104349 73 131 0.0 1.0 0.00 0.00 0.00 88 1012.7
20260502103822 73 131 0.0 1.0 0.00 0.00 0.00 88 1012.7
20260502103322 73 129 0.0 1.0 0.00 0.00 0.00 88 1012.5
20260502102832 73 169 0.0 1.0 0.00 0.00 0.00 88 1012.5
20260502102326 73 167 0.0 0.0 0.00 0.00 0.00 88 1012.5
20260502101837 73 162 0.0 1.0 0.00 0.00 0.00 87 1012.5
20260502101404 73 152 0.0 0.0 0.00 0.00 0.00 87 1012.5
20260502100836 73 134 0.0 0.0 0.00 0.00 0.00 87 1012.5
20260502100336 73 134 0.0 0.0 0.00 0.00 0.00 87 1012.6
20260502091336 72 352 0.0 0.0 0.00 0.00 0.00 87 1012.6
20260502090830 72 352 0.0 0.0 0.00 0.00 0.00 87 1012.6
20260502090323 72 352 0.0 0.0 0.00 0.00 0.00 87 1012.5
20260502071341 73 225 0.0 0.0 0.00 0.00 0.00 86 1012.6
20260502070830 73 225 0.0 0.0 0.00 0.00 0.00 85 1012.7
20260502070323 73 225 0.0 1.0 0.00 0.00 0.00 86 1012.7
20260502065824 73 225 0.0 1.0 0.00 0.00 0.00 86 1012.7
20260502065335 73 283 0.0 0.0 0.00 0.00 0.00 85 1012.7
20260502064851 73 283 0.0 0.0 0.00 0.00 0.00 85 1012.8
20260502064321 73 283 0.0 0.0 0.00 0.00 0.00 85 1012.9
20260502063831 73 283 0.0 0.0 0.00 0.00 0.00 85 1012.9
20260502063345 73 283 0.0 0.0 0.00 0.00 0.00 85 1012.8
20260502062838 73 283 0.0 0.0 0.00 0.00 0.00 85 1012.7
20260502062403 73 283 0.0 0.0 0.00 0.00 0.00 85 1012.7
20260502061824 73 283 0.0 0.0 0.00 0.00 0.00 85 1012.8
20260502061330 74 283 0.0 0.0 0.00 0.00 0.00 84 1012.9
20260502060821 74 283 0.0 0.0 0.00 0.00 0.00 84 1013.0
20260502060332 74 283 0.0 0.0 0.00 0.00 0.00 84 1013.1
20260502055845 74 283 0.0 0.0 0.00 0.00 0.00 83 1013.0
20260502055321 74 283 0.0 0.0 0.00 0.00 0.00 83 1013.0
20260502054849 74 283 0.0 0.0 0.00 0.00 0.00 83 1013.0
20260502054339 75 283 0.0 0.0 0.00 0.00 0.00 82 1013.1
20260502053831 75 283 0.0 0.0 0.00 0.00 0.00 82 1013.1
20260502053343 75 283 0.0 0.0 0.00 0.00 0.00 82 1013.2
20260502052830 75 283 0.0 1.0 0.00 0.00 0.00 82 1013.2
20260502052330 75 128 0.0 1.0 0.00 0.00 0.00 81 1013.3
20260502051821 76 120 0.0 1.0 0.00 0.00 0.00 81 1013.1
20260502051343 76 120 0.0 0.0 0.00 0.00 0.00 81 1013.2
20260502050825 76 117 0.0 1.0 0.00 0.00 0.00 81 1013.1
20260502050335 76 146 0.0 1.0 0.00 0.00 0.00 81 1013.1
20260502045828 76 146 0.0 1.0 0.00 0.00 0.00 80 1013.1
20260502045321 77 151 0.0 3.0 0.00 0.00 0.00 80 1013.1
20260502044830 77 146 0.0 3.0 0.00 0.00 0.00 80 1013.2
20260502044321 77 136 1.0 3.0 0.00 0.00 0.00 80 1013.1
20260502043858 77 135 0.0 4.0 0.00 0.00 0.00 80 1013.1
20260502043327 78 165 0.0 4.0 0.00 0.00 0.00 80 1013.2
20260502042820 78 150 1.0 4.0 0.00 0.00 0.00 80 1013.2
20260502042342 78 121 1.0 4.0 0.00 0.00 0.00 80 1013.2
20260502041837 78 144 0.0 5.0 0.00 0.00 0.00 80 1013.1
20260502041336 78 272 0.0 4.0 0.00 0.00 0.00 81 1013.2
20260502040826 78 154 1.0 4.0 0.00 0.00 0.00 82 1013.1
20260502040348 78 146 1.0 6.0 0.00 0.00 0.00 82 1013.1
20260502035833 79 172 2.0 6.0 0.00 0.00 0.00 82 1013.0
20260502035345 79 184 2.0 4.0 0.00 0.00 0.00 81 1013.2
20260502034854 79 159 1.0 5.0 0.00 0.00 0.00 81 1013.2
20260502034326 79 155 2.0 7.0 0.00 0.00 0.00 81 1013.2
20260502033839 79 162 2.0 7.0 0.00 0.00 0.00 81 1013.2
20260502033406 79 165 2.0 6.0 0.00 0.00 0.00 81 1013.2
20260502032839 79 154 0.0 6.0 0.00 0.00 0.00 80 1013.1
20260502032329 79 176 2.0 5.0 0.00 0.00 0.00 80 1013.1
20260502031907 79 145 3.0 5.0 0.00 0.00 0.00 80 1013.1
20260502031343 79 177 1.0 5.0 0.00 0.00 0.00 80 1013.0
20260502030835 79 153 2.0 5.0 0.00 0.00 0.00 80 1013.0
20260502030334 79 165 2.0 6.0 0.00 0.00 0.00 79 1013.0
20260502025829 79 143 2.0 6.0 0.00 0.00 0.00 79 1013.0
20260502025321 79 156 2.0 6.0 0.00 0.00 0.00 79 1013.0
20260502024836 79 161 2.0 4.0 0.00 0.00 0.00 79 1013.0
20260502024329 79 132 2.0 7.0 0.00 0.00 0.00 78 1013.0
20260502023822 80 130 1.0 7.0 0.00 0.00 0.00 78 1013.0
20260502023332 80 131 1.0 6.0 0.00 0.00 0.00 78 1012.9
20260502022846 80 128 2.0 6.0 0.00 0.00 0.00 78 1012.9
20260502022347 80 116 2.0 7.0 0.00 0.00 0.00 78 1012.9